Terug naar catalogus

STARLINK-2614

ActiefCommunicatieVLEO
NORAD 48380·PAYLOAD·🇺🇸 United States

Gelanceerd May 4, 2021 vanaf Cape Canaveral Space Force Station

Loading…

Volgende Passages (komende 24 uur)

TLE

VersSource: CelesTrak SupGP

Epoch: Sep 14, 2026, 21:51 UTC

1 48380C 21038AD  26257.91090278 -.00015177  00000+0 -48806-3 0  2573
2 48380  53.1598 185.0350 0001402  96.1076 131.6631 15.31709700    19

Volg STARLINK-2614 in realtime met AllMySat

Download on the App Store